Weather History for Fairbanks Eiels, AK

Change the Weather History Date:

Thursday, March 13, 2014

  Actual Average Record
Temperature  
Mean Temperature 23 °F -  
Max Temperature 42 °F 21 °F 44 °F (1988)
Min Temperature 4 °F -2 °F -39 °F (1966)
Degree Days  
Heating Degree Days 42    
Moisture  
Dew Point 13 °F    
Average Humidity 41    
Maximum Humidity 84    
Minimum Humidity 33    
Precipitation  
Precipitation 0.00 in - - ()
Sea Level Pressure  
Sea Level Pressure 29.31 in    
Wind  
Wind Speed 9 mph (ESE)    
Max Wind Speed 18 mph    
Max Gust Speed 20 mph    
Visibility 10 miles    
Events      
Averages and records for this station are not official NWS values.
T = Trace of Precipitation, MM = Missing Value Source: NWS Daily Summary

Daily Weather History Graph

Daily Weather History Graph

Search for Another Location

Airport:

Trip Planner

Search our weather history database for the weather conditions in past years. The results will help you decide how hot, cold, wet, or windy it might be!

Date:

Astronomy

Mar. 13, 2014 Rise Set
Actual Time 8:13 AM AKDT 7:43 PM AKDT
Civil Twilight 7:25 AM AKDT 8:32 PM AKDT
Nautical Twilight 6:27 AM AKDT 9:30 PM AKDT
Astronomical Twilight 5:24 AM AKDT 10:33 PM AKDT
Moon 4:37 PM AKDT (3/13) 7:12 AM AKDT (3/13)
Length of Visible Light 13h 06m
Length of Day
11h 30m
Waxing Gibbous, 92% of the Moon is Illuminated
Mar 13
Waxing Gibbous
Mar 16
Full
Mar 23
Last Quarter
Mar 30
New
Apr 7
First Quarter

Hourly Weather History & Observations

Time (AKDT) Temp. Windchill Dew Point Humidity Pressure Visibility Wind Dir Wind Speed Gust Speed Precip Events Conditions
12:58 AM 4.5 °F -2.7 °F 0.5 °F 84% 29.47 in 10.0 mi Variable 3.5 mph - N/A   Clear
1:58 AM 29.3 °F 19.1 °F 10.8 °F 46% 29.44 in 10.0 mi ESE 12.7 mph - 0.00 in   Clear
2:58 AM 31.6 °F 20.0 °F 11.1 °F 43% 29.41 in 10.0 mi ESE 18.4 mph - N/A   Clear
3:58 AM 31.5 °F 21.8 °F 11.5 °F 44% 29.40 in 10.0 mi ESE 12.7 mph - N/A   Clear
4:58 AM 32.4 °F 22.5 °F 11.3 °F 42% 29.38 in 10.0 mi ESE 13.8 mph - N/A   Clear
5:58 AM 31.5 °F 23.5 °F 12.0 °F 45% 29.37 in 10.0 mi ESE 9.2 mph - N/A   Clear
6:58 AM 32.4 °F 23.5 °F 11.3 °F 42% 29.35 in 10.0 mi ESE 11.5 mph - N/A   Clear
7:58 AM 33.8 °F 25.3 °F 11.5 °F 40% 29.32 in 10.0 mi East 11.5 mph - N/A   Clear
8:58 AM 33.6 °F 26.8 °F 11.5 °F 40% 29.33 in 10.0 mi East 8.1 mph - N/A   Clear
9:58 AM 34.0 °F 31.0 °F 11.1 °F 39% 29.33 in 10.0 mi North 3.5 mph - N/A   Clear
10:58 AM 34.7 °F 30.6 °F 13.1 °F 41% 29.32 in 10.0 mi North 4.6 mph - N/A   Scattered Clouds
11:58 AM 37.9 °F 31.5 °F 14.2 °F 38% 29.31 in 10.0 mi ESE 9.2 mph - N/A   Clear
12:58 PM 40.3 °F 33.4 °F 14.0 °F 34% 29.29 in 10.0 mi ESE 11.5 mph - N/A   Clear
1:58 PM 40.3 °F 33.4 °F 14.2 °F 35% 29.30 in 10.0 mi SE 11.5 mph - N/A   Clear
2:58 PM 41.2 °F 36.0 °F 13.6 °F 33% 29.27 in 10.0 mi ESE 8.1 mph - N/A   Clear
3:58 PM 42.4 °F 36.1 °F 16.7 °F 35% 29.26 in 10.0 mi SE 11.5 mph - N/A   Clear
4:02 PM 42.8 °F 38.0 °F 15.8 °F 34% 29.24 in 10.0 mi SE 8.1 mph 19.6 mph N/A   Mostly Cloudy
4:58 PM 41.2 °F 36.0 °F 16.9 °F 38% 29.27 in 10.0 mi SSE 8.1 mph - N/A   Mostly Cloudy
5:58 PM 40.6 °F 36.7 °F 16.9 °F 38% 29.26 in 10.0 mi SSE 5.8 mph - N/A   Mostly Cloudy
6:58 PM 36.5 °F 31.0 °F 17.8 °F 47% 29.26 in 10.0 mi SE 6.9 mph - N/A   Mostly Cloudy
7:58 PM 37.2 °F 30.0 °F 14.7 °F 40% 29.26 in 10.0 mi SE 10.4 mph - N/A   Mostly Cloudy
8:58 PM 35.8 °F 27.3 °F 14.4 °F 42% 29.25 in 10.0 mi East 12.7 mph - N/A   Mostly Cloudy
9:58 PM 36.0 °F 28.0 °F 12.4 °F 38% 29.26 in 10.0 mi ESE 11.5 mph - N/A   Mostly Cloudy
10:58 PM 34.5 °F 28.6 °F 13.1 °F 41% 29.25 in 10.0 mi ESE 6.9 mph - N/A   Clear
11:58 PM 36.1 °F 29.3 °F 12.7 °F 38% 29.24 in 10.0 mi SE 9.2 mph - N/A   Clear